Torna al catalogo

ONEWEB-0543

AttivoComunicazioniPO
NORAD 55143·PAYLOAD·🇬🇧 United Kingdom

Lanciato Jan 10, 2023 da Cape Canaveral Space Force Station

Loading…

Prossimi Passaggi (prossime 24 ore)

TLE

AggiornatoSource: CelesTrak SupGP

Epoca: Sep 14, 2026, 20:33 UTC

1 55143C 23004D   26257.85674028 -.00000595  00000+0 -15118-2 0  2574
2 55143  87.9162 317.6499 0002038  92.0720 300.4534 13.18688438    15

Traccia ONEWEB-0543 in tempo reale con AllMySat

Download on the App Store